Погода в Хайлигенблут-ам-Гросглокнере

Австрия     47°02′23″N   12°50′35″E
темп.,
°C
ветер,
м/с
пор.,
м/с
влажн.,
%
обл.,
%
осадки,
мм/ч
давл.,
гПа
погр.,
м
15 апреля, чт
чт1523:00−14с339442 0.1 103123
02:00−15с339663 0.2 103122
05:00−16с339475 0.0 103123
08:00−11с339293 0.1 1028147
11:00−7с3276100 0.1 1025982
14:00−5ссв3378100 0.6 1023974
17:00−5с447394 0.6 1022980
20:00−12с449432 0.7 102726
16 апреля, пт
пт1623:00−14ссз339516 0.1 103020
02:00−16ссз329732 0.1 103019
05:00−15ссз32872 0.0 102917
08:00−10с23812 0.0 102458
11:00−5всв11531 0.0 1020674
14:00−3в216289 0.1 10191100
17:00−3всв227785 0.4 1018723
20:00−7ссв329265 0.7 102216
17 апреля, сб
сб1723:00−11с339326 0.0 102517
02:00−11с22915 0.0 102516
05:00−11с33906 0.0 102320
08:00−7с34919 0.0 1021105
11:00−4ссв3378100 0.0 1018622
14:00−3ссв3385100 0.1 1016863
17:00−2с4378100 0.1 1016817
20:00−7с4593100 0.3 102056
18 апреля, вс
вс1823:00−7с459499 0.1 102061
02:00−9с4593100 0.3 102163
05:00−9с5693100 0.1 1021102
08:00−7с5691100 0.1 1019362
11:00−4с5582100 0.1 1018815
14:00−2с4482100 0.4 1017977
17:00−2с558196 0.4 1016899
20:00−6с4694100 0.8 102186
19 апреля, пн
пн1923:00−7ссз4493100 0.1 102257
02:00−8ссз449394 0.3 102152
05:00−8ссз4492100 0.1 102155
08:00−5с4490100 0.2 1018260
11:00−3с3476100 0.1 1016969
14:00−2с4476100 0.4 10151009
17:00−2с4578100 0.4 1015865
20:00−5с4593100 0.5 1017124